Flag Weather past 2 weeks in Wailuku, Hawaii, U.S.A.

Now
74 °F

Broken clouds.


Feels Like: 74 °F
Forecast: 70 / 84 °F
Wind: 10 mph from South

Location: Kahului Airport

Current Time: Nov 24, 2014 at 7:57:38 AM

Latest Report: Nov 24, 2014 at 6:54 AM


Visibility: 10 mi

Pressure: 29.90 "Hg

Humidity: 79%

Dew point: 67 °F

Location of WailukuLocation

Historic Weather in Wailuku — Graph

°F

Wailuku temperature yesterday

Maximum temperature yesterday: 86 °F (at 2:54 PM)
Minimum temperature yesterday: 63 °F (at 6:54 AM)
Average temperature yesterday: 75 °F

Past Weeks' High & Low Weather Summary

 TemperatureHumidityPressure
High88 °F (Nov 22, 12:54 PM)93% (Nov 16, 5:54 AM)30.16 "Hg (Nov 16, 5:54 AM)
Low63 °F (Nov 23, 6:54 AM)40% (Nov 22, 11:54 AM)29.83 "Hg (Nov 15, 2:54 PM)
Average76 °F72%30.00 "Hg
* Reported Nov 9 6:54 AM — Nov 24 6:54 AM, Wailuku, Weather by CustomWeather, © 2014

Note: Actual official high and low records may vary slightly from our data, if they occured in-between our weather recording intervals... More about our weather records

Advertising

Wailuku weather history for previous 24 hours

 ConditionsComfort  
Time TempWeatherWind HumidityBarometerVisibility
6:54 AM
Nov 24
74 °FBroken clouds.10 mph79%29.90 "Hg10 mi
5:54 AM75 °FPassing clouds.15 mph74%29.89 "Hg10 mi
4:54 AM73 °FPassing clouds.12 mph84%29.88 "Hg10 mi
3:54 AM74 °FPassing clouds.13 mph79%29.88 "Hg10 mi
2:54 AM73 °FClear.12 mph88%29.88 "Hg10 mi
1:54 AM72 °FPassing clouds.3 mph81%29.90 "Hg10 mi
12:54 AM70 °FPassing clouds.No wind81%29.91 "Hg10 mi
11:54 PM
Nov 23
71 °FPassing clouds.8 mph73%29.93 "Hg10 mi
10:54 PM73 °FClear.7 mph74%29.95 "Hg10 mi
9:54 PM73 °FClear.9 mph74%29.96 "Hg10 mi
8:54 PM74 °FClear.6 mph82%29.94 "Hg10 mi
7:54 PM74 °FClear.7 mph82%29.94 "Hg10 mi
6:54 PM75 °FPassing clouds.7 mph76%29.93 "Hg10 mi
5:54 PM79 °FPassing clouds.5 mph65%29.91 "Hg10 mi
4:54 PM82 °FSunny.8 mph56%29.90 "Hg10 mi
3:54 PM85 °FScattered clouds.8 mph48%29.90 "Hg10 mi
2:54 PM86 °FScattered clouds.7 mph48%29.91 "Hg10 mi
1:54 PM85 °FScattered clouds.7 mph50%29.92 "Hg10 mi
12:54 PM85 °FScattered clouds.7 mph51%29.95 "Hg10 mi
11:54 AM85 °FScattered clouds.10 mph51%29.98 "Hg10 mi
10:54 AM84 °FPassing clouds.6 mph53%29.99 "Hg10 mi
9:54 AM81 °FPassing clouds.5 mph56%30.02 "Hg10 mi
8:54 AM77 °FSunny.No wind62%30.02 "Hg10 mi
7:54 AM69 °FSunny.No wind73%30.01 "Hg10 mi
Weather by CustomWeather, © 2014

See weather overviewHow to use our weather pages